sat.trackr.live / text

‹ back to catalog

QMR-KWT-2 (RS95S)

NORAD 67291 · 2025-313AV

PAYLOAD ACTIVE UNKNOWN

§ Identity

Operator
Country
KWT
Launch date
2025-12-28
Launch site
VOSTO
Launch vehicle
Mass (kg)
RCS (m²)

External: N2YO · Heavens-Above · Gunter

§ Orbital elements

Epoch: 2026-05-24T22:26:43.384704Z

Period
94.39 min
Inclination
97.3938°
Eccentricity
0.0010367
Mean motion
15.25582525 rev/d
Perigee alt
481.9 km
Apogee alt
496.2 km
Semi-major
6,867.2 km
B*
5.2045e-4
RAAN
220.3986°
Arg perigee
81.7267°
Mean anomaly
278.5146°
Rev number
2,244

§ Raw data

QMR-KWT-2 (RS95S)1 67291U 25313AV  26144.93522436  .00013174  00000+0  52045-3 0  99942 67291  97.3938 220.3986 0010367  81.7267 278.5146 15.25582525 22449

JSON: /api/v1/satellites/67291 · /tle

For live sub-satellite position, see the globe view (requires WebGL).

§ Visibility from observer

Set your observer location to see the next 7 days of passes ≥ 10°. The values pass through the URL so the page stays shareable.

No JS? Fill the form by hand. The geolocation button needs JavaScript.

§ Radio — SatNOGS DB

ModeDescriptionDownlinkUplink
GMSK Mode U - GMSK2k4 - Telemetry 436.950 MHz
SSTV SSTV 436.950 MHz
FM V/U FM Transponder CTCSS 67.0 Hz 436.950 MHz 145.920 MHz

3 transmitters · refreshed weekly from db.satnogs.org